Location: Peterborough
(44.3091°N, 78.3197°W)
Time: 04:01:31
(UTC-04:00)

Tiros 1 - Pass Details

Date: 11 April 2023
Orbit: 627 x 661 km, 48.4° (Epoch: 09 June)

Event Time Altitude Azimuth Distance (km) Brightness Sun altitude
Rises 22:21:06 0° 193° (SSW) 2,920 - -24.3°
Reaches altitude 10° 22:24:11 10° 171° (S) 2,024 - -24.7°
Maximum altitude 22:27:00 16° 134° (SE) 1,672 - -25.1°
Drops below altitude 10° 22:29:50 10° 96° (E) 2,045 - -25.4°
Sets 22:32:59 0° 76° (ENE) 2,967 - -25.8°
